Tracking 19280 objects as of 13-Nov-2018
HD Live streaming from Space Station
objects crossing your sky now

COSMOS 2013

Track COSMOS 2013 now!
10-day predictions
COSMOS 2013 is classified as:


NORAD ID: 19907
Int'l Code: 1989-025F
Perigee: 1,471.7 km
Apogee: 1,487.2 km
Inclination: 74.0 °
Period: 115.4 minutes
Semi major axis: 7850 km
RCS: 0.7071 m2 (medium)
Launch date: March 24, 1989
Source: Commonwealth of Independent States (former USSR) (CIS)
Launch site: PLESETSK MISSILE AND SPACE COMPLEX (PKMTR)
aabbcc
Your satellite tracking list
Your tracking list is empty




NASA's NSSDC Master Catalog

Two Line Element Set (TLE):
1 19907U 89025F   18316.57885512 -.00000009  00000-0  46044-4 0  9992
2 19907  74.0102  84.2290 0009824 206.6216 213.7377 12.48134059350558
Source of the keplerian elements: AFSPC